Fort Collins, CO

4:15 AM MST on January 20, 2017 (GMT -0700)
Fort Collins-Loveland Municipal

Weather History for KFNL - November, 2013

Change the Weather History Date:

Friday, November 15, 2013

  Actual Average Record
Temperature  
Mean Temperature 45 °F -  
Max Temperature 62 °F - 77 °F (2016)
Min Temperature 28 °F - 6 °F (1997)
Degree Days  
Heating Degree Days 20    
Month to date heating degree days  
Cooling Degree Days 0    
Month to date cooling degree days  
Moisture  
Dew Point 27 °F    
Average Humidity 60    
Maximum Humidity 93    
Minimum Humidity 20    
Precipitation  
Precipitation 0.00 in - 1.24 in (2004)
Sea Level Pressure  
Sea Level Pressure 29.61 in    
Wind  
Wind Speed 5 mph (West)    
Max Wind Speed 23 mph    
Max Gust Speed 28 mph    
Visibility 10 miles    
Events      
T = Trace of Precipitation, MM = Missing Value Source: NWS Daily Summary

Daily Weather History Graph

Daily Weather History Graph

Search for Another Location

Airport or City:

Trip Planner

Search our weather history database for the weather conditions in past years. The results will help you decide how hot, cold, wet, or windy it might be!

Date:

Astronomy

Nov. 15, 2013 Rise Set
Actual Time 6:46 AM MST 4:42 PM MST
Civil Twilight 6:17 AM MST 5:11 PM MST
Nautical Twilight 5:44 AM MST 5:44 PM MST
Astronomical Twilight 5:12 AM MST 6:16 PM MST
Moon 3:41 PM MST (11/15) 4:45 AM MST (11/15)
Length of Visible Light 10h 54m
Length of Day
9h 55m
Waxing Gibbous, 97% of the Moon is Illuminated
Nov 15
Waxing Gibbous
Nov 17
Full
Nov 25
Last Quarter
Dec 2
New
Dec 9
First Quarter

Hourly Weather History & Observations

Time (MST) Temp. Windchill Dew Point Humidity Pressure Visibility Wind Dir Wind Speed Gust Speed Precip Events Conditions
12:15 AM 33.8 °F - 28.4 °F 81% 29.77 in 10.0 mi Calm Calm - N/A   Clear
12:35 AM 33.8 °F - 28.4 °F 81% 29.75 in 10.0 mi Calm Calm - N/A   Clear
12:55 AM 32.0 °F 24.8 °F 26.6 °F 80% 29.77 in 10.0 mi NNW 8.1 mph - N/A   Clear
1:15 AM 33.8 °F 28.6 °F 28.4 °F 81% 29.75 in 10.0 mi North 5.8 mph - N/A   Clear
1:35 AM 33.8 °F 30.8 °F 28.4 °F 81% 29.75 in 10.0 mi NNE 3.5 mph - N/A   Clear
1:55 AM 33.8 °F 28.6 °F 28.4 °F 81% 29.74 in 10.0 mi East 5.8 mph - N/A   Clear
2:15 AM 33.8 °F - 28.4 °F 81% 29.74 in 10.0 mi Calm Calm - N/A   Clear
2:35 AM 30.2 °F 26.7 °F 24.8 °F 80% 29.73 in 10.0 mi West 3.5 mph - N/A   Clear
2:55 AM 33.8 °F - 28.4 °F 81% 29.72 in 10.0 mi Calm Calm - N/A   Clear
3:15 AM 33.8 °F - 28.4 °F 81% 29.72 in 10.0 mi Calm Calm - N/A   Clear
3:35 AM 30.2 °F - 26.6 °F 86% 29.71 in 10.0 mi Calm Calm - N/A   Clear
3:55 AM 30.2 °F 24.3 °F 26.6 °F 86% 29.70 in 10.0 mi NE 5.8 mph - N/A   Clear
4:15 AM 32.0 °F 25.6 °F 28.4 °F 87% 29.71 in 10.0 mi NNE 6.9 mph - N/A   Clear
4:35 AM 28.4 °F 23.3 °F 24.8 °F 86% 29.71 in 10.0 mi North 4.6 mph - N/A   Clear
4:55 AM 28.4 °F - 24.8 °F 86% 29.71 in 10.0 mi Calm Calm - N/A   Clear
5:15 AM 28.4 °F 20.4 °F 26.6 °F 93% 29.70 in 10.0 mi North 8.1 mph - N/A   Clear
5:35 AM 28.4 °F 21.2 °F 26.6 °F 93% 29.69 in 10.0 mi NNE 6.9 mph - N/A   Clear
5:55 AM 28.4 °F 22.2 °F 24.8 °F 86% 29.69 in 10.0 mi North 5.8 mph - N/A   Clear
6:15 AM 28.4 °F - 26.6 °F 93% 29.69 in 10.0 mi Calm Calm - N/A   Clear
6:35 AM 28.4 °F 24.6 °F 26.6 °F 93% 29.68 in 10.0 mi ENE 3.5 mph - N/A   Clear
6:55 AM 28.4 °F 22.2 °F 26.6 °F 93% 29.68 in 10.0 mi SE 5.8 mph - N/A   Clear
7:15 AM 28.4 °F - 24.8 °F 86% 29.68 in 10.0 mi Calm Calm - N/A   Clear
7:35 AM 28.4 °F 22.2 °F 26.6 °F 93% 29.68 in 10.0 mi South 5.8 mph - N/A   Clear
7:55 AM 32.0 °F 23.6 °F 28.4 °F 87% 29.68 in 10.0 mi ENE 10.4 mph - N/A   Clear
8:15 AM 33.8 °F 27.0 °F 30.2 °F 87% 29.68 in 10.0 mi ENE 8.1 mph - N/A   Clear
8:35 AM 37.4 °F 32.8 °F 32.0 °F 81% 29.68 in 10.0 mi NW 5.8 mph - N/A   Clear
8:55 AM 39.2 °F - 33.8 °F 81% 29.67 in 10.0 mi Calm Calm - N/A   Clear
9:15 AM 41.0 °F 37.1 °F 33.8 °F 76% 29.68 in 10.0 mi SSW 5.8 mph - N/A   Clear
9:35 AM 44.6 °F 43.1 °F 33.8 °F 66% 29.67 in 10.0 mi WSW 3.5 mph - N/A   Clear
9:55 AM 44.6 °F - 33.8 °F 66% 29.67 in 10.0 mi Calm Calm - N/A   Clear
10:15 AM 46.4 °F 42.4 °F 33.8 °F 62% 29.66 in 10.0 mi NE 8.1 mph - N/A   Clear
10:35 AM 48.2 °F - 33.8 °F 58% 29.65 in 10.0 mi NNW 5.8 mph - N/A   Clear
10:55 AM 51.8 °F - 32.0 °F 47% 29.63 in 10.0 mi ESE 11.5 mph - N/A   Clear
11:15 AM 53.6 °F - 33.8 °F 47% 29.62 in 10.0 mi SE 10.4 mph - N/A   Clear
11:35 AM 55.4 °F - 33.8 °F 44% 29.61 in 10.0 mi Calm Calm - N/A   Clear
11:55 AM 59.0 °F - 28.4 °F 31% 29.59 in 10.0 mi SSW 3.5 mph - N/A   Clear
12:15 PM 57.2 °F - 30.2 °F 36% 29.58 in 10.0 mi Calm Calm - N/A   Clear
12:35 PM 60.8 °F - 26.6 °F 27% 29.56 in 10.0 mi SSW 3.5 mph - N/A   Clear
12:55 PM 60.8 °F - 24.8 °F 25% 29.55 in 10.0 mi NNW 3.5 mph - N/A   Clear
1:15 PM 62.6 °F - 24.8 °F 24% 29.54 in 10.0 mi WNW 5.8 mph - N/A   Clear
1:35 PM 62.6 °F - 23.0 °F 22% 29.53 in 10.0 mi West 19.6 mph - N/A   Clear
1:55 PM 62.6 °F - 21.2 °F 20% 29.52 in 10.0 mi WSW 21.9 mph 27.6 mph N/A   Clear
2:15 PM 60.8 °F - 19.4 °F 20% 29.51 in 10.0 mi West 23.0 mph 27.6 mph N/A   Clear
2:35 PM 60.8 °F - 19.4 °F 20% 29.50 in 10.0 mi WSW 18.4 mph 26.5 mph N/A   Clear
2:55 PM 59.0 °F - 21.2 °F 23% 29.50 in 10.0 mi West 16.1 mph 20.7 mph N/A   Clear
3:15 PM 57.2 °F - 19.4 °F 23% 29.49 in 10.0 mi West 11.5 mph 16.1 mph N/A   Clear
3:35 PM 55.4 °F - 21.2 °F 26% 29.49 in 10.0 mi West 10.4 mph - N/A   Clear
3:55 PM 55.4 °F - 21.2 °F 26% 29.51 in 10.0 mi West 12.7 mph 17.3 mph N/A   Clear
4:15 PM 55.4 °F - 23.0 °F 29% 29.51 in 10.0 mi West 13.8 mph 18.4 mph N/A   Clear
4:35 PM 53.6 °F - 24.8 °F 33% 29.51 in 10.0 mi West 13.8 mph - N/A   Clear
4:55 PM 51.8 °F - 23.0 °F 33% 29.51 in 10.0 mi WSW 8.1 mph - N/A   Scattered Clouds
5:15 PM 51.8 °F - 24.8 °F 35% 29.50 in 10.0 mi WSW 8.1 mph - N/A   Mostly Cloudy
5:35 PM 53.6 °F - 23.0 °F 30% 29.51 in 10.0 mi WSW 10.4 mph - N/A   Mostly Cloudy
5:55 PM 51.8 °F - 24.8 °F 35% 29.51 in 10.0 mi WSW 13.8 mph - N/A   Partly Cloudy
6:15 PM 48.2 °F - 24.8 °F 40% 29.51 in 10.0 mi SW 11.5 mph - N/A   Clear
6:35 PM 48.2 °F - 26.6 °F 43% 29.51 in 10.0 mi SW 9.2 mph - N/A   Clear
6:55 PM 44.6 °F 39.7 °F 26.6 °F 49% 29.53 in 10.0 mi NNW 9.2 mph - N/A   Clear
7:15 PM 42.8 °F 37.5 °F 26.6 °F 53% 29.54 in 10.0 mi NNW 9.2 mph - N/A   Clear
7:35 PM 44.6 °F 38.8 °F 30.2 °F 57% 29.54 in 10.0 mi NNW 11.5 mph - N/A   Clear
7:55 PM 44.6 °F 38.1 °F 30.2 °F 57% 29.53 in 10.0 mi NW 13.8 mph - N/A   Clear
8:15 PM 42.8 °F 37.0 °F 30.2 °F 61% 29.53 in 10.0 mi North 10.4 mph - N/A   Clear
8:35 PM 42.8 °F 38.6 °F 28.4 °F 57% 29.53 in 10.0 mi North 6.9 mph - N/A   Scattered Clouds
8:55 PM 39.2 °F 35.0 °F 28.4 °F 65% 29.53 in 10.0 mi NNW 5.8 mph - N/A   Partly Cloudy
9:15 PM 37.4 °F - 28.4 °F 70% 29.53 in 10.0 mi Calm Calm - N/A   Clear
9:35 PM 39.2 °F 37.0 °F 30.2 °F 70% 29.53 in 10.0 mi South 3.5 mph - N/A   Clear
9:55 PM 39.2 °F 35.9 °F 30.2 °F 70% 29.52 in 10.0 mi SSW 4.6 mph - N/A   Clear
10:15 PM 39.2 °F 34.2 °F 30.2 °F 70% 29.51 in 10.0 mi South 6.9 mph - N/A   Clear
10:35 PM 37.4 °F 30.3 °F 26.6 °F 65% 29.51 in 10.0 mi SSW 10.4 mph - N/A   Clear
10:55 PM 39.2 °F 30.8 °F 24.8 °F 56% 29.50 in 10.0 mi SSW 15.0 mph - N/A   Clear
11:15 PM 44.6 °F 39.2 °F 24.8 °F 46% 29.49 in 10.0 mi SSW 10.4 mph - N/A   Clear
11:35 PM 44.6 °F 38.4 °F 24.8 °F 46% 29.49 in 10.0 mi SW 12.7 mph - N/A   Clear
11:55 PM 39.2 °F 37.0 °F 24.8 °F 56% 29.49 in 10.0 mi East 3.5 mph - N/A   Clear